Location: Ar Ranvel
(48.3000°N, 4.8833°W)
Time: 03:21:20
(UTC+00:00)

Cosmos 2322 Rocket - Pass Details

Date: 24 October 2021
Orbit: 832 x 851 km, 71.0° (Epoch: 01 December)

Event Time Altitude Azimuth Distance (km) Brightness Sun altitude
Rises 19:46:47 0° 229° (SW) 3,368 5.8 -26.0°
Reaches altitude 10° 19:49:21 10° 237° (WSW) 2,438 5.1 -26.4°
Maximum altitude 19:54:37 41° 307° (NW) 1,194 3.3 -27.3°
Drops below altitude 10° 19:59:56 10° 17° (NNE) 2,458 4.6 -28.2°
Enters shadow 20:00:08 - 18° (NNE) 2,526 4.6 -28.2°
